When you browse on this site, cookies collect data to enhance your experience and personalize the content and advertising you see.
Visit our Privacy Policy to learn more. By continuing to use the site, you agree to this use of cookies and data.
  • Em Portugal
  • Lista de países
  • Para 7 dias
  • Temperatura da água
  • Mapa do tempo
  • Widgets de tempo
  • user-avatar
    Iniciar Sessão

    Previsão horária em Mislata

    Hoje, 18 Janeiro, Sábado

    Tempo Temperatura Precipitação Vento Pressão Humidade
    00:00 +10°C° 0 mm 2 m/s 770 mmHg 69%
    01:00 +9°C° 0 mm 2 m/s 770 mmHg 71%
    02:00 +10°C° 0 mm 1 m/s 769 mmHg 73%
    03:00 +10°C° 0 mm 1 m/s 769 mmHg 75%
    04:00 +9°C° 0 mm 2 m/s 769 mmHg 73%
    05:00 +9°C° 0 mm 2 m/s 769 mmHg 72%
    06:00 +10°C° 0 mm 2 m/s 769 mmHg 70%
    07:00 +10°C° 0 mm 2 m/s 769 mmHg 70%
    08:00 +11°C° 0 mm 3 m/s 769 mmHg 69%
    09:00 +12°C° 0 mm 3 m/s 769 mmHg 68%
    10:00 +13°C° 0 mm 4 m/s 769 mmHg 62%
    11:00 +15°C° 0 mm 5 m/s 768 mmHg 56%
    12:00 +16°C° 0 mm 6 m/s 767 mmHg 50%
    13:00 +16°C° 0 mm 6 m/s 766 mmHg 50%
    14:00 +17°C° 0 mm 6 m/s 765 mmHg 49%
    15:00 +17°C° 0 mm 6 m/s 764 mmHg 49%
    16:00 +15°C° 0 mm 5 m/s 764 mmHg 55%
    17:00 +14°C° 0 mm 4 m/s 764 mmHg 62%
    18:00 +12°C° 0 mm 4 m/s 763 mmHg 69%
    19:00 +12°C° 0 mm 3 m/s 763 mmHg 71%
    20:00 +12°C° 0 mm 3 m/s 762 mmHg 73%
    21:00 +12°C° 0 mm 3 m/s 762 mmHg 75%
    22:00 +12°C° 0 mm 3 m/s 762 mmHg 77%
    23:00 +12°C° 0 mm 3 m/s 761 mmHg 79%

    Amanhã, 19 Janeiro, Domingo

    Tempo Temperatura Precipitação Vento Pressão Humidade
    00:00 +12°C° 0 mm 3 m/s 761 mmHg 80%
    01:00 +12°C° 0.1 mm 3 m/s 760 mmHg 81%
    02:00 +11°C° 0.1 mm 3 m/s 760 mmHg 81%
    03:00 +11°C° 0.1 mm 3 m/s 759 mmHg 82%
    04:00 +10°C° 0 mm 3 m/s 759 mmHg 83%
    05:00 +9°C° 0 mm 3 m/s 758 mmHg 85%
    06:00 +8°C° 0 mm 3 m/s 758 mmHg 87%
    07:00 +9°C° 0.3 mm 3 m/s 758 mmHg 85%
    08:00 +10°C° 0.3 mm 4 m/s 758 mmHg 82%
    09:00 +10°C° 0.3 mm 4 m/s 758 mmHg 80%
    10:00 +9°C° 0.9 mm 7 m/s 758 mmHg 82%
    11:00 +7°C° 0.9 mm 10 m/s 758 mmHg 84%
    12:00 +7°C° 0.9 mm 13 m/s 758 mmHg 86%
    13:00 +5°C° 1.5 mm 13 m/s 758 mmHg 86%
    14:00 +5°C° 1.5 mm 13 m/s 758 mmHg 85%
    15:00 +5°C° 1.5 mm 13 m/s 758 mmHg 85%
    16:00 +5°C° 1.5 mm 12 m/s 758 mmHg 83%
    17:00 +5°C° 1.5 mm 12 m/s 758 mmHg 81%
    18:00 +6°C° 1.5 mm 11 m/s 758 mmHg 79%
    19:00 +6°C° 2.1 mm 11 m/s 759 mmHg 82%
    20:00 +4°C° 2.1 mm 12 m/s 759 mmHg 85%
    21:00 +4°C° 2.1 mm 13 m/s 760 mmHg 87%
    22:00 +4°C° 2.1 mm 13 m/s 760 mmHg 88%
    23:00 +3°C° 2.1 mm 13 m/s 760 mmHg 88%

    Depois de amanhã, 20 Janeiro, Segunda-feira

    Tempo Temperatura Precipitação Vento Pressão Humidade
    00:00 +3°C° 2.1 mm 13 m/s 760 mmHg 89%
    01:00 +3°C° 2 mm 13 m/s 759 mmHg 87%
    02:00 +3°C° 2 mm 14 m/s 759 mmHg 86%
    03:00 +3°C° 2 mm 14 m/s 759 mmHg 84%
    04:00 +3°C° 1.6 mm 14 m/s 759 mmHg 85%
    05:00 +3°C° 1.6 mm 14 m/s 759 mmHg 86%
    06:00 +3°C° 1.6 mm 14 m/s 759 mmHg 87%
    07:00 +3°C° 2.6 mm 14 m/s 759 mmHg 88%
    08:00 +2°C° 2.6 mm 15 m/s 759 mmHg 89%
    09:00 +2°C° 2.6 mm 15 m/s 759 mmHg 90%
    10:00 +3°C° 5.5 mm 14 m/s 759 mmHg 91%
    11:00 +3°C° 5.5 mm 13 m/s 759 mmHg 93%
    12:00 +3°C° 5.5 mm 12 m/s 759 mmHg 95%
    13:00 +3°C° 3.7 mm 11 m/s 758 mmHg 94%
    14:00 +5°C° 3.7 mm 10 m/s 758 mmHg 93%
    15:00 +6°C° 3.7 mm 9 m/s 758 mmHg 92%
    16:00 +6°C° 3.3 mm 8 m/s 758 mmHg 93%
    17:00 +8°C° 3.3 mm 7 m/s 758 mmHg 95%
    18:00 +8°C° 3.3 mm 7 m/s 758 mmHg 96%
    19:00 +8°C° 2 mm 6 m/s 759 mmHg 96%
    20:00 +9°C° 2 mm 5 m/s 759 mmHg 96%
    21:00 +9°C° 2 mm 5 m/s 759 mmHg 97%
    22:00 +9°C° 1.4 mm 5 m/s 759 mmHg 96%
    23:00 +9°C° 1.4 mm 5 m/s 759 mmHg 95%

    21 Janeiro, Terça-feira

    Tempo Temperatura Precipitação Vento Pressão Humidade
    00:00 +9°C° 1.4 mm 6 m/s 759 mmHg 95%
    01:00 +9°C° 2 mm 7 m/s 759 mmHg 95%
    02:00 +9°C° 2 mm 7 m/s 758 mmHg 95%
    03:00 +9°C° 2 mm 8 m/s 758 mmHg 95%
    04:00 +9°C° 1.7 mm 8 m/s 757 mmHg 92%
    05:00 +10°C° 1.7 mm 7 m/s 757 mmHg 89%
    06:00 +10°C° 1.7 mm 7 m/s 757 mmHg 86%
    07:00 +10°C° 1.3 mm 8 m/s 757 mmHg 88%
    08:00 +11°C° 1.3 mm 9 m/s 757 mmHg 89%
    09:00 +11°C° 1.3 mm 10 m/s 757 mmHg 91%
    10:00 +11°C° 1.8 mm 11 m/s 756 mmHg 88%
    11:00 +11°C° 1.8 mm 11 m/s 756 mmHg 85%
    12:00 +12°C° 1.8 mm 12 m/s 755 mmHg 83%
    13:00 +12°C° 0.6 mm 10 m/s 756 mmHg 80%
    14:00 +13°C° 0.6 mm 8 m/s 756 mmHg 77%
    15:00 +14°C° 0.6 mm 7 m/s 756 mmHg 74%
    16:00 +13°C° 0.2 mm 6 m/s 756 mmHg 79%
    17:00 +12°C° 0.2 mm 5 m/s 757 mmHg 83%
    18:00 +10°C° 0.2 mm 4 m/s 757 mmHg 88%
    19:00 +10°C° 0 mm 3 m/s 758 mmHg 89%
    20:00 +10°C° 0 mm 3 m/s 758 mmHg 90%
    21:00 +9°C° 0 mm 3 m/s 759 mmHg 91%
    22:00 +9°C° 0 mm 2 m/s 759 mmHg 91%
    23:00 +9°C° 0 mm 2 m/s 759 mmHg 91%

    22 Janeiro, Quarta-feira

    Tempo Temperatura Precipitação Vento Pressão Humidade
    00:00 +9°C° 0 mm 2 m/s 759 mmHg 91%
    01:00 +8°C° 0 mm 2 m/s 759 mmHg 90%
    02:00 +8°C° 0 mm 2 m/s 759 mmHg 89%
    03:00 +8°C° 0 mm 2 m/s 759 mmHg 87%
    04:00 +8°C° 0 mm 2 m/s 759 mmHg 86%
    05:00 +8°C° 0 mm 2 m/s 759 mmHg 85%
    06:00 +8°C° 0 mm 2 m/s 759 mmHg 83%
    07:00 +9°C° 0 mm 2 m/s 759 mmHg 81%
    08:00 +10°C° 0 mm 2 m/s 760 mmHg 78%
    09:00 +12°C° 0 mm 2 m/s 760 mmHg 76%
    10:00 +13°C° 0 mm 2 m/s 760 mmHg 68%
    11:00 +14°C° 0 mm 2 m/s 760 mmHg 61%
    12:00 +16°C° 0 mm 2 m/s 760 mmHg 53%
    13:00 +16°C° 0 mm 2 m/s 760 mmHg 53%
    14:00 +16°C° 0 mm 3 m/s 760 mmHg 54%
    15:00 +16°C° 0 mm 3 m/s 760 mmHg 54%
    16:00 +14°C° 0 mm 3 m/s 761 mmHg 61%
    17:00 +13°C° 0 mm 2 m/s 762 mmHg 69%
    18:00 +10°C° 0 mm 2 m/s 762 mmHg 77%
    19:00 +10°C° 0 mm 1 m/s 763 mmHg 78%
    20:00 +10°C° 0 mm 1 m/s 763 mmHg 79%
    21:00 +10°C° 0 mm 1 m/s 764 mmHg 80%
    22:00 +9°C° 0 mm 1 m/s 764 mmHg 81%
    23:00 +8°C° 0 mm 2 m/s 764 mmHg 81%

    23 Janeiro, Quinta-feira

    Tempo Temperatura Precipitação Vento Pressão Humidade
    00:00 +8°C° 0 mm 2 m/s 764 mmHg 81%
    01:00 +8°C° 0 mm 2 m/s 764 mmHg 81%
    02:00 +8°C° 0 mm 2 m/s 764 mmHg 81%
    03:00 +9°C° 0 mm 1 m/s 764 mmHg 81%
    04:00 +8°C° 0 mm 2 m/s 764 mmHg 81%
    05:00 +8°C° 0 mm 2 m/s 764 mmHg 81%
    06:00 +8°C° 0 mm 2 m/s 764 mmHg 81%
    07:00 +9°C° 0 mm 2 m/s 764 mmHg 80%
    08:00 +10°C° 0 mm 2 m/s 764 mmHg 79%
    09:00 +12°C° 0 mm 2 m/s 765 mmHg 78%
    10:00 +13°C° 0 mm 2 m/s 765 mmHg 76%
    11:00 +13°C° 0 mm 3 m/s 765 mmHg 75%
    12:00 +14°C° 0 mm 3 m/s 765 mmHg 74%
    13:00 +14°C° 0 mm 4 m/s 764 mmHg 76%
    14:00 +14°C° 0 mm 4 m/s 764 mmHg 77%
    15:00 +14°C° 0 mm 4 m/s 763 mmHg 79%
    16:00 +13°C° 0.1 mm 4 m/s 764 mmHg 84%
    17:00 +12°C° 0.1 mm 3 m/s 764 mmHg 89%
    18:00 +11°C° 0.1 mm 3 m/s 764 mmHg 93%
    19:00 +10°C° 0 mm 2 m/s 765 mmHg 93%
    20:00 +10°C° 0 mm 2 m/s 765 mmHg 93%
    21:00 +10°C° 0 mm 2 m/s 765 mmHg 93%
    22:00 +10°C° 0 mm 2 m/s 765 mmHg 92%
    23:00 +10°C° 0 mm 2 m/s 765 mmHg 91%
    Mostrar mais